Dades meteomassalio
Diari Summary for Maig 2, 2017 Units:  Metric    English   Both
« Previous Day
Next Day »
Diari Semanal Mensual Anual Personalitzat
  Maxima: Minima: Mijana:
Temperatura: 20.4 °C 4.3 °C 13.1 °C
Rosada: 7.8 °C 1.6 °C 4.8 °C
Humitat: 84 % 41 % 60 %
Velocitat del vent: 22.5 km/h 0.0 km/h 4 km/h
Racha vent: 22.5 km/h - -
Vent:- - West
Pressio: 1021.9 hPa 1017.5 hPa -
Pluja: 0.0 mm    
Historical Graphs
 
 
Tabular Data for Maig 2, 2017
Time Temperature Dew Point Pressure Wind Wind Speed Wind Gust Humidity Rainfall Rate (Hourly) solar Conditions
00:04 8.3 °C 2.3 °C 1021.2 hPa Calm     66 % 0.0 mm 0.0 W/m2 CLR
00:09 8.2 °C 2.2 °C 1021.6 hPa Calm     66 % 0.0 mm 0.0 W/m2 CLR
00:14 8.1 °C 2.3 °C 1021.6 hPa Calm     67 % 0.0 mm 0.0 W/m2 CLR
00:19 8.0 °C 2.2 °C 1021.6 hPa Calm     67 % 0.0 mm 0.0 W/m2 CLR
00:21 7.9 °C 2.2 °C 1021.6 hPa Calm     67 % 0.0 mm 0.0 W/m2 CLR
00:26 7.9 °C 2.1 °C 1021.6 hPa Calm     67 % 0.0 mm 0.0 W/m2 CLR
00:31 7.8 °C 2.2 °C 1021.6 hPa Calm     68 % 0.0 mm 0.0 W/m2 CLR
00:36 7.7 °C 2.1 °C 1021.6 hPa Calm     68 % 0.0 mm 0.0 W/m2 CLR
00:41 7.6 °C 2.1 °C 1021.6 hPa Calm     68 % 0.0 mm 0.0 W/m2 CLR
00:46 7.6 °C 2.0 °C 1021.6 hPa Calm     68 % 0.0 mm 0.0 W/m2 CLR
00:51 7.6 °C 2.0 °C 1021.6 hPa Calm     68 % 0.0 mm 0.0 W/m2 CLR
00:56 7.5 °C 1.9 °C 1021.6 hPa Calm     68 % 0.0 mm 0.0 W/m2 CLR
01:01 7.4 °C 2.1 °C 1021.6 hPa Calm     69 % 0.0 mm 0.0 W/m2 CLR
01:06 7.4 °C 1.9 °C 1021.6 hPa Calm     68 % 0.0 mm 0.0 W/m2 CLR
01:11 7.4 °C 1.9 °C 1021.6 hPa Calm     68 % 0.0 mm 0.0 W/m2 CLR
01:16 7.4 °C 1.9 °C 1021.9 hPa Calm     68 % 0.0 mm 0.0 W/m2 CLR
01:21 7.4 °C 2.1 °C 1021.6 hPa Calm     69 % 0.0 mm 0.0 W/m2 CLR
01:26 7.4 °C 1.9 °C 1021.6 hPa Calm     68 % 0.0 mm 0.0 W/m2 CLR
01:31 7.4 °C 2.1 °C 1021.9 hPa Calm     69 % 0.0 mm 0.0 W/m2 CLR
01:36 7.3 °C 2.2 °C 1021.9 hPa Calm     70 % 0.0 mm 0.0 W/m2 CLR
01:41 7.1 °C 2.0 °C 1021.6 hPa Calm     70 % 0.0 mm 0.0 W/m2 CLR
01:46 6.9 °C 2.0 °C 1021.9 hPa Calm     71 % 0.0 mm 0.0 W/m2 CLR
01:51 6.8 °C 1.9 °C 1021.6 hPa Calm     71 % 0.0 mm 0.0 W/m2 CLR
01:56 6.7 °C 1.8 °C 1021.6 hPa Calm     71 % 0.0 mm 0.0 W/m2 CLR
02:01 6.7 °C 2.0 °C 1021.6 hPa Calm     72 % 0.0 mm 0.0 W/m2 CLR
02:06 6.8 °C 2.1 °C 1021.6 hPa Calm     72 % 0.0 mm 0.0 W/m2 CLR
02:11 6.7 °C 2.0 °C 1021.6 hPa Calm     72 % 0.0 mm 0.0 W/m2 CLR
02:16 6.7 °C 2.0 °C 1021.6 hPa Calm     72 % 0.0 mm 0.0 W/m2 CLR
02:21 6.7 °C 2.0 °C 1021.6 hPa Calm     72 % 0.0 mm 0.0 W/m2 CLR
02:27 6.6 °C 1.9 °C 1021.6 hPa Calm     72 % 0.0 mm 0.0 W/m2 CLR
02:32 6.4 °C 1.9 °C 1021.6 hPa Calm     73 % 0.0 mm 0.0 W/m2 CLR
02:37 6.3 °C 1.8 °C 1021.6 hPa Calm     73 % 0.0 mm 0.0 W/m2 CLR
02:42 6.2 °C 1.7 °C 1021.6 hPa Calm     73 % 0.0 mm 0.0 W/m2 CLR
02:47 6.1 °C 1.8 °C 1021.6 hPa Calm     74 % 0.0 mm 0.0 W/m2 CLR
02:52 6.0 °C 1.7 °C 1021.2 hPa Calm     74 % 0.0 mm 0.0 W/m2 CLR
02:57 5.9 °C 1.8 °C 1021.2 hPa Calm     75 % 0.0 mm 0.0 W/m2 CLR
03:02 5.8 °C 1.7 °C 1021.2 hPa Calm     75 % 0.0 mm 0.0 W/m2 CLR
03:07 5.7 °C 1.8 °C 1021.2 hPa Calm     76 % 0.0 mm 0.0 W/m2 CLR
03:12 5.7 °C 1.8 °C 1021.2 hPa Calm     76 % 0.0 mm 0.0 W/m2 CLR
03:17 5.7 °C 1.8 °C 1021.2 hPa Calm     76 % 0.0 mm 0.0 W/m2 CLR
03:22 5.6 °C 1.7 °C 1021.2 hPa Calm     76 % 0.0 mm 0.0 W/m2 CLR
03:27 5.5 °C 1.8 °C 1021.2 hPa Calm     77 % 0.0 mm 0.0 W/m2 CLR
03:32 5.5 °C 1.8 °C 1020.9 hPa Calm     77 % 0.0 mm 0.0 W/m2 CLR
03:37 5.4 °C 1.7 °C 1020.9 hPa Calm     77 % 0.0 mm 0.0 W/m2 CLR
03:42 5.4 °C 1.7 °C 1020.9 hPa Calm     77 % 0.0 mm 0.0 W/m2 CLR
03:47 5.4 °C 1.8 °C 1020.9 hPa Calm     78 % 0.0 mm 0.0 W/m2 CLR
03:52 5.3 °C 1.8 °C 1020.9 hPa Calm     78 % 0.0 mm 0.0 W/m2 CLR
03:57 5.2 °C 1.7 °C 1020.9 hPa Calm     78 % 0.0 mm 0.0 W/m2 CLR
04:02 5.1 °C 1.6 °C 1021.2 hPa Calm     78 % 0.0 mm 0.0 W/m2 CLR
04:07 5.1 °C 1.8 °C 1021.2 hPa Calm     79 % 0.0 mm 0.0 W/m2 CLR
04:12 5.1 °C 1.7 °C 1021.2 hPa Calm     79 % 0.0 mm 0.0 W/m2 CLR
04:17 5.1 °C 1.7 °C 1021.2 hPa Calm     79 % 0.0 mm 0.0 W/m2 CLR
04:22 5.1 °C 1.7 °C 1021.2 hPa Calm     79 % 0.0 mm 0.0 W/m2 CLR
04:27 5.1 °C 1.7 °C 1021.2 hPa Calm     79 % 0.0 mm 0.0 W/m2 CLR
04:32 5.1 °C 1.8 °C 1020.9 hPa Calm     79 % 0.0 mm 0.0 W/m2 CLR
04:37 5.1 °C 1.7 °C 1020.9 hPa Calm     79 % 0.0 mm 0.0 W/m2 CLR
04:42 5.1 °C 1.9 °C 1020.9 hPa Calm     80 % 0.0 mm 0.0 W/m2 CLR
04:47 5.1 °C 1.8 °C 1020.9 hPa Calm     79 % 0.0 mm 0.0 W/m2 CLR
04:52 5.1 °C 1.7 °C 1020.9 hPa Calm     79 % 0.0 mm 0.0 W/m2 CLR
04:57 4.9 °C 1.8 °C 1020.9 hPa Calm     80 % 0.0 mm 0.0 W/m2 CLR
05:02 4.8 °C 1.8 °C 1020.9 hPa Calm     81 % 0.0 mm 0.0 W/m2 CLR
05:07 4.9 °C 1.9 °C 1020.9 hPa Calm     81 % 0.0 mm 0.0 W/m2 CLR
05:12 4.8 °C 1.8 °C 1020.9 hPa Calm     81 % 0.0 mm 0.0 W/m2 CLR
05:17 4.8 °C 1.8 °C 1021.2 hPa Calm     81 % 0.0 mm 0.0 W/m2 CLR
05:22 4.8 °C 1.8 °C 1021.2 hPa Calm     81 % 0.0 mm 0.0 W/m2 CLR
05:27 4.8 °C 1.8 °C 1020.9 hPa Calm     81 % 0.0 mm 0.0 W/m2 CLR
05:32 4.9 °C 1.9 °C 1020.9 hPa Calm     81 % 0.0 mm 0.0 W/m2 CLR
05:37 4.9 °C 1.8 °C 1021.2 hPa Calm     80 % 0.0 mm 0.0 W/m2 CLR
05:42 4.9 °C 1.9 °C 1020.9 hPa Calm     81 % 0.0 mm 0.0 W/m2 CLR
05:47 4.9 °C 1.9 °C 1020.9 hPa Calm     81 % 0.0 mm 0.0 W/m2 CLR
05:52 4.8 °C 1.8 °C 1020.9 hPa Calm     81 % 0.0 mm 0.0 W/m2 CLR
05:57 4.8 °C 1.8 °C 1020.9 hPa Calm     81 % 0.0 mm 0.0 W/m2 CLR
06:02 4.8 °C 1.8 °C 1021.2 hPa Calm     81 % 0.0 mm 0.0 W/m2 CLR
06:07 4.8 °C 1.8 °C 1021.2 hPa Calm     81 % 0.0 mm 0.0 W/m2 CLR
06:12 4.8 °C 1.8 °C 1021.2 hPa Calm     81 % 0.0 mm 0.0 W/m2 CLR
06:17 4.7 °C 1.7 °C 1021.2 hPa Calm     81 % 0.0 mm 0.0 W/m2 CLR
06:22 4.7 °C 1.7 °C 1020.9 hPa Calm     81 % 0.0 mm 0.0 W/m2 CLR
06:27 4.7 °C 1.8 °C 1020.9 hPa Calm     82 % 0.0 mm 0.0 W/m2 CLR
06:32 4.6 °C 1.8 °C 1021.2 hPa Calm     82 % 0.0 mm 0.0 W/m2 CLR
06:37 4.6 °C 1.8 °C 1021.2 hPa Calm     82 % 0.0 mm 0.0 W/m2 CLR
06:42 4.6 °C 1.7 °C 1021.2 hPa Calm     82 % 0.0 mm 0.0 W/m2 CLR
06:47 4.5 °C 1.7 °C 1021.2 hPa Calm     82 % 0.0 mm 0.0 W/m2 OVC
06:52 4.4 °C 1.6 °C 1021.2 hPa Calm     82 % 0.0 mm 0.0 W/m2 OVC
06:57 4.3 °C 1.7 °C 1021.2 hPa Calm     83 % 0.0 mm 0.0 W/m2 OVC
07:02 4.3 °C 1.7 °C 1021.2 hPa Calm     83 % 0.0 mm 5.0 W/m2 OVC
07:07 4.3 °C 1.7 °C 1021.2 hPa Calm     83 % 0.0 mm 9.0 W/m2 BKN
07:12 4.3 °C 1.8 °C 1021.6 hPa Calm     84 % 0.0 mm 14.0 W/m2 BKN
07:17 4.3 °C 1.7 °C 1021.6 hPa Calm     83 % 0.0 mm 21.0 W/m2 BKN
07:22 4.3 °C 1.9 °C 1021.6 hPa Calm     84 % 0.0 mm 25.0 W/m2 BKN
07:27 4.3 °C 1.9 °C 1021.6 hPa Calm     84 % 0.0 mm 33.0 W/m2 BKN
07:32 4.3 °C 1.9 °C 1021.6 hPa Calm     84 % 0.0 mm 35.0 W/m2 BKN
07:37 4.4 °C 1.9 °C 1021.6 hPa Calm     84 % 0.0 mm 39.0 W/m2 BKN
07:42 4.5 °C 2.1 °C 1021.6 hPa Calm     84 % 0.0 mm 42.0 W/m2 BKN
07:47 4.6 °C 2.1 °C 1021.6 hPa Calm     84 % 0.0 mm 58.0 W/m2 SCT
07:52 4.8 °C 2.3 °C 1021.6 hPa Calm     84 % 0.0 mm 84.0 W/m2 FEW
07:58 5.1 °C 2.4 °C 1021.6 hPa Calm     83 % 0.0 mm 90.0 W/m2 FEW
08:03 5.3 °C 2.7 °C 1021.6 hPa Calm     83 % 0.0 mm 118.0 W/m2 CLR
08:08 5.7 °C 2.8 °C 1021.9 hPa Calm     82 % 0.0 mm 127.0 W/m2 CLR
08:13 6.1 °C 2.9 °C 1021.6 hPa Calm     80 % 0.0 mm 128.0 W/m2 CLR
08:18 6.3 °C 3.1 °C 1021.6 hPa Calm     80 % 0.0 mm 162.0 W/m2 CLR
08:23 6.7 °C 3.3 °C 1021.6 hPa Calm     79 % 0.0 mm 144.0 W/m2 CLR
08:28 7.1 °C 3.5 °C 1021.6 hPa Calm     78 % 0.0 mm 179.0 W/m2 CLR
08:33 7.6 °C 3.8 °C 1021.6 hPa Calm     77 % 0.0 mm 207.0 W/m2 CLR
08:38 8.1 °C 4.1 °C 1021.6 hPa Calm     76 % 0.0 mm 236.0 W/m2 CLR
08:43 8.7 °C 4.1 °C 1021.6 hPa Calm     73 % 0.0 mm 225.0 W/m2 CLR
08:48 9.1 °C 4.1 °C 1021.6 hPa Calm     71 % 0.0 mm 271.0 W/m2 CLR
08:53 9.7 °C 4.4 °C 1021.6 hPa Calm     70 % 0.0 mm 281.0 W/m2 CLR
08:58 10.1 °C 4.7 °C 1021.6 hPa Calm     69 % 0.0 mm 276.0 W/m2 CLR
09:00 10.3 °C 4.7 °C 1021.6 hPa Calm     68 % 0.0 mm 292.0 W/m2 CLR
09:05 10.8 °C 4.7 °C 1021.6 hPa Calm     66 % 0.0 mm 267.0 W/m2 CLR
09:10 11.3 °C 5.0 °C 1021.6 hPa Calm     65 % 0.0 mm 248.0 W/m2 CLR
09:15 11.8 °C 5.2 °C 1021.6 hPa Calm     64 % 0.0 mm 264.0 W/m2 CLR
09:20 12.1 °C 5.3 °C 1021.6 hPa Calm     63 % 0.0 mm 246.0 W/m2 CLR
09:25 12.4 °C 5.3 °C 1021.6 hPa Calm     62 % 0.0 mm 227.0 W/m2 CLR
09:30 12.7 °C 5.3 °C 1021.6 hPa Calm     61 % 0.0 mm 236.0 W/m2 CLR
09:35 12.7 °C 5.1 °C 1021.6 hPa Calm     60 % 0.0 mm 246.0 W/m2 CLR
09:40 12.7 °C 5.2 °C 1021.6 hPa Calm     60 % 0.0 mm 260.0 W/m2 CLR
09:45 12.8 °C 5.3 °C 1021.6 hPa Calm     60 % 0.0 mm 297.0 W/m2 CLR
09:50 13.1 °C 5.2 °C 1021.2 hPa Calm     59 % 0.0 mm 279.0 W/m2 CLR
09:55 13.4 °C 5.1 °C 1021.2 hPa Calm     57 % 0.0 mm 255.0 W/m2 CLR
10:00 13.9 °C 4.2 °C 1021.2 hPa West 9.7 km/h 9.7 km/h 52 % 0.0 mm 269.0 W/m2 CLR
10:05 14.1 °C 4.1 °C 1021.2 hPa West 7.4 km/h 7.4 km/h 51 % 0.0 mm 302.0 W/m2 CLR
10:10 14.3 °C 4.1 °C 1021.2 hPa WSW 3.7 km/h 3.7 km/h 50 % 0.0 mm 313.0 W/m2 CLR
10:15 14.6 °C 4.2 °C 1021.2 hPa WSW 5.6 km/h 5.6 km/h 50 % 0.0 mm 348.0 W/m2 CLR
10:20 14.7 °C 4.3 °C 1021.2 hPa SW 5.6 km/h 5.6 km/h 50 % 0.0 mm 388.0 W/m2 CLR
10:25 14.9 °C 4.3 °C 1021.2 hPa SW 8.0 km/h 8.0 km/h 49 % 0.0 mm 446.0 W/m2 CLR
10:30 15.1 °C 4.4 °C 1021.2 hPa West 8.0 km/h 8.0 km/h 49 % 0.0 mm 476.0 W/m2 CLR
10:35 15.4 °C 4.2 °C 1021.2 hPa NW 8.0 km/h 8.0 km/h 47 % 0.0 mm 464.0 W/m2 CLR
10:40 15.6 °C 4.0 °C 1021.2 hPa WNW 8.0 km/h 8.0 km/h 46 % 0.0 mm 450.0 W/m2 CLR
10:45 15.7 °C 4.1 °C 1020.9 hPa NW 5.6 km/h 5.6 km/h 46 % 0.0 mm 436.0 W/m2 CLR
10:50 15.9 °C 4.3 °C 1020.9 hPa NW 9.3 km/h 9.3 km/h 46 % 0.0 mm 448.0 W/m2 CLR
10:55 16.1 °C 4.4 °C 1020.9 hPa NW 9.3 km/h 9.3 km/h 46 % 0.0 mm 461.0 W/m2 CLR
11:00 16.2 °C 5.2 °C 1021.2 hPa WNW 9.7 km/h 9.7 km/h 48 % 0.0 mm 561.0 W/m2 CLR
11:05 16.4 °C 5.3 °C 1020.9 hPa NW 13.0 km/h 13.0 km/h 48 % 0.0 mm 536.0 W/m2 CLR
11:10 16.4 °C 5.4 °C 1020.9 hPa NNW 9.3 km/h 9.3 km/h 48 % 0.0 mm 520.0 W/m2 CLR
11:15 16.6 °C 5.8 °C 1020.9 hPa WNW 7.4 km/h 7.4 km/h 49 % 0.0 mm 615.0 W/m2 CLR
11:20 16.8 °C 6.1 °C 1020.9 hPa NNW 9.7 km/h 9.7 km/h 49 % 0.0 mm 612.0 W/m2 CLR
11:25 17.1 °C 6.0 °C 1020.9 hPa North 9.3 km/h 9.3 km/h 48 % 0.0 mm 686.0 W/m2 CLR
11:30 17.3 °C 5.9 °C 1020.9 hPa NNW 11.3 km/h 11.3 km/h 47 % 0.0 mm 679.0 W/m2 CLR
11:35 17.3 °C 5.8 °C 1020.9 hPa NW 16.1 km/h 16.1 km/h 47 % 0.0 mm 582.0 W/m2 CLR
11:40 17.4 °C 5.7 °C 1020.9 hPa NNW 16.7 km/h 16.7 km/h 46 % 0.0 mm 689.0 W/m2 CLR
11:41 17.4 °C 5.7 °C 1020.9 hPa North 11.1 km/h 11.1 km/h 46 % 0.0 mm 664.0 W/m2 CLR
11:46 17.5 °C 5.4 °C 1020.9 hPa WNW 7.4 km/h 7.4 km/h 45 % 0.0 mm 613.0 W/m2 CLR
11:51 17.6 °C 5.8 °C 1020.5 hPa NW 13.0 km/h 13.0 km/h 46 % 0.0 mm 534.0 W/m2 CLR
11:56 17.7 °C 5.9 °C 1020.5 hPa NNE 5.6 km/h 5.6 km/h 46 % 0.0 mm 619.0 W/m2 CLR
12:01 17.9 °C 6.2 °C 1020.5 hPa NNW 3.7 km/h 3.7 km/h 46 % 0.0 mm 455.0 W/m2 CLR
12:06 17.7 °C 5.6 °C 1020.5 hPa Calm     45 % 0.0 mm 489.0 W/m2 CLR
12:11 17.8 °C 6.3 °C 1020.5 hPa West 1.6 km/h 1.6 km/h 47 % 0.0 mm 527.0 W/m2 CLR
12:16 17.9 °C 5.4 °C 1020.5 hPa Calm     44 % 0.0 mm 401.0 W/m2 CLR
12:21 17.9 °C 5.8 °C 1020.5 hPa NNW 18.5 km/h 18.5 km/h 45 % 0.0 mm 396.0 W/m2 CLR
12:26 17.8 °C 6.1 °C 1020.5 hPa NW 18.5 km/h 18.5 km/h 46 % 0.0 mm 462.0 W/m2 CLR
12:31 17.7 °C 5.9 °C 1020.5 hPa WNW 18.5 km/h 18.5 km/h 46 % 0.0 mm 434.0 W/m2 CLR
12:36 17.6 °C 5.8 °C 1020.5 hPa NW 9.3 km/h 9.3 km/h 46 % 0.0 mm 468.0 W/m2 CLR
12:41 17.7 °C 5.6 °C 1020.2 hPa North 18.5 km/h 18.5 km/h 45 % 0.0 mm 466.0 W/m2 CLR
12:46 17.8 °C 5.7 °C 1020.2 hPa North 1.9 km/h 1.9 km/h 45 % 0.0 mm 512.0 W/m2 CLR
12:51 18.0 °C 5.2 °C 1020.2 hPa WNW 3.7 km/h   43 % 0.0 mm 575.0 W/m2 CLR
12:56 18.2 °C 5.8 °C 1020.2 hPa NW 19.3 km/h 19.3 km/h 44 % 0.0 mm 754.0 W/m2 CLR
13:01 18.4 °C 5.3 °C 1020.2 hPa West 5.6 km/h 5.6 km/h 42 % 0.0 mm 935.0 W/m2 CLR
13:06 18.9 °C 5.7 °C 1019.9 hPa NNW 14.8 km/h 14.8 km/h 42 % 0.0 mm 1048.0 W/m2 CLR
13:11 19.3 °C 5.7 °C 1019.9 hPa North 14.8 km/h 14.8 km/h 41 % 0.0 mm 1150.0 W/m2 CLR
13:16 19.5 °C 5.9 °C 1019.9 hPa North 14.8 km/h 14.8 km/h 41 % 0.0 mm 693.0 W/m2 CLR
13:21 19.2 °C 5.7 °C 1019.9 hPa WNW 9.3 km/h   41 % 0.0 mm 554.0 W/m2 CLR
13:26 19.3 °C 6.4 °C 1019.9 hPa North 5.6 km/h 5.6 km/h 43 % 0.0 mm 745.0 W/m2 CLR
13:31 19.5 °C 6.2 °C 1019.5 hPa North 16.7 km/h 16.7 km/h 42 % 0.0 mm 575.0 W/m2 CLR
13:36 19.3 °C 6.8 °C 1019.5 hPa NNW 22.5 km/h 22.5 km/h 44 % 0.0 mm 573.0 W/m2 CLR
13:41 19.2 °C 6.6 °C 1019.5 hPa NW 13.0 km/h 13.0 km/h 44 % 0.0 mm 531.0 W/m2 CLR
13:46 19.2 °C 7.3 °C 1019.5 hPa NW 13.0 km/h 13.0 km/h 46 % 0.0 mm 552.0 W/m2 CLR
13:51 19.4 °C 6.6 °C 1019.5 hPa WNW 3.7 km/h 3.7 km/h 43 % 0.0 mm 594.0 W/m2 CLR
13:56 19.4 °C 6.9 °C 1019.5 hPa NW 16.7 km/h 16.7 km/h 44 % 0.0 mm 599.0 W/m2 CLR
13:58 19.4 °C 6.9 °C 1019.5 hPa NW 13.0 km/h 13.0 km/h 44 % 0.0 mm 559.0 W/m2 CLR
14:03 19.5 °C 6.9 °C 1019.5 hPa Calm     44 % 0.0 mm 541.0 W/m2 CLR
14:08 19.7 °C 6.7 °C 1019.2 hPa Calm     43 % 0.0 mm 594.0 W/m2 CLR
14:13 19.8 °C 6.8 °C 1019.2 hPa Calm     43 % 0.0 mm 744.0 W/m2 CLR
14:18 20.0 °C 7.1 °C 1019.2 hPa North 18.5 km/h 18.5 km/h 43 % 0.0 mm 740.0 W/m2 CLR
14:23 19.9 °C 6.6 °C 1019.2 hPa NNW 16.7 km/h 16.7 km/h 42 % 0.0 mm 512.0 W/m2 CLR
14:28 19.7 °C 6.4 °C 1019.2 hPa NNW 13.0 km/h 13.0 km/h 42 % 0.0 mm 439.0 W/m2 CLR
14:33 19.7 °C 6.4 °C 1019.2 hPa ENE 3.7 km/h 3.7 km/h 42 % 0.0 mm 510.0 W/m2 CLR
14:38 19.6 °C 6.3 °C 1019.2 hPa NE 3.7 km/h 3.7 km/h 42 % 0.0 mm 494.0 W/m2 CLR
14:43 19.6 °C 6.3 °C 1019.2 hPa WNW 17.7 km/h 17.7 km/h 42 % 0.0 mm 420.0 W/m2 CLR
14:48 19.7 °C 6.4 °C 1019.2 hPa NW 18.5 km/h 18.5 km/h 42 % 0.0 mm 397.0 W/m2 CLR
14:53 19.4 °C 6.2 °C 1019.2 hPa NNW 1.9 km/h   42 % 0.0 mm 373.0 W/m2 CLR
14:58 19.3 °C 6.4 °C 1019.2 hPa NNW 3.7 km/h 3.7 km/h 43 % 0.0 mm 366.0 W/m2 CLR
15:03 19.4 °C 6.5 °C 1019.2 hPa NW 16.1 km/h 16.1 km/h 43 % 0.0 mm 397.0 W/m2 CLR
15:08 19.6 °C 6.3 °C 1019.2 hPa NNW 18.5 km/h 18.5 km/h 42 % 0.0 mm 392.0 W/m2 CLR
15:13 19.4 °C 6.1 °C 1019.2 hPa NW 20.4 km/h 20.4 km/h 42 % 0.0 mm 352.0 W/m2 CLR
15:18 19.2 °C 6.3 °C 1019.2 hPa NW 16.7 km/h 16.7 km/h 43 % 0.0 mm 290.0 W/m2 CLR
15:23 19.2 °C 6.7 °C 1019.2 hPa NNW 16.7 km/h 16.7 km/h 44 % 0.0 mm 279.0 W/m2 CLR
15:28 19.0 °C 6.4 °C 1019.2 hPa NNW 14.8 km/h 14.8 km/h 44 % 0.0 mm 260.0 W/m2 CLR
15:33 19.0 °C 6.4 °C 1018.8 hPa NNW 18.5 km/h 18.5 km/h 44 % 0.0 mm 250.0 W/m2 CLR
15:38 18.9 °C 6.7 °C 1018.8 hPa NNW 18.5 km/h 18.5 km/h 45 % 0.0 mm 258.0 W/m2 CLR
15:43 18.9 °C 6.7 °C 1018.8 hPa NW 16.1 km/h 16.1 km/h 45 % 0.0 mm 234.0 W/m2 CLR
15:48 18.8 °C 6.3 °C 1018.8 hPa North 14.8 km/h 14.8 km/h 44 % 0.0 mm 246.0 W/m2 CLR
15:58 19.0 °C 6.8 °C 1018.8 hPa Calm     45 % 0.0 mm 309.0 W/m2 CLR
16:03 19.2 °C 6.9 °C 1018.8 hPa NW 14.8 km/h 14.8 km/h 45 % 0.0 mm 294.0 W/m2 CLR
16:08 19.1 °C 6.9 °C 1018.8 hPa NW 5.6 km/h 5.6 km/h 45 % 0.0 mm 313.0 W/m2 CLR
16:13 19.2 °C 7.0 °C 1018.8 hPa Calm   0.5 km/h 45 % 0.0 mm 343.0 W/m2 CLR
16:18 19.3 °C 7.1 °C 1018.8 hPa NNW 5.6 km/h 5.6 km/h 45 % 0.0 mm 348.0 W/m2 CLR
16:28 19.6 °C 7.3 °C 1018.8 hPa NNW 11.3 km/h 11.3 km/h 45 % 0.0 mm 399.0 W/m2 CLR
16:33 19.7 °C 7.1 °C 1018.5 hPa NNW 11.1 km/h 11.1 km/h 44 % 0.0 mm 301.0 W/m2 CLR
16:38 19.5 °C 7.2 °C 1018.5 hPa WNW 20.4 km/h 20.4 km/h 45 % 0.0 mm 234.0 W/m2 CLR
16:43 19.3 °C 7.1 °C 1018.5 hPa West 14.8 km/h 14.8 km/h 45 % 0.0 mm 185.0 W/m2 CLR
16:48 19.3 °C 7.4 °C 1018.5 hPa WSW 7.4 km/h 7.4 km/h 46 % 0.0 mm 163.0 W/m2 CLR
16:53 19.1 °C 6.9 °C 1018.5 hPa West 16.7 km/h 16.7 km/h 45 % 0.0 mm 156.0 W/m2 CLR
16:58 18.9 °C 7.0 °C 1018.5 hPa West 3.7 km/h 3.7 km/h 46 % 0.0 mm 163.0 W/m2 CLR
17:03 18.8 °C 7.3 °C 1018.5 hPa Calm     47 % 0.0 mm 181.0 W/m2 CLR
17:08 18.9 °C 7.4 °C 1018.5 hPa WNW 5.6 km/h 5.6 km/h 47 % 0.0 mm 211.0 W/m2 CLR
17:13 19.1 °C 7.2 °C 1018.5 hPa Calm     46 % 0.0 mm 236.0 W/m2 CLR
17:18 19.2 °C 7.3 °C 1018.5 hPa Calm     46 % 0.0 mm 225.0 W/m2 CLR
17:23 19.3 °C 7.4 °C 1018.5 hPa Calm     46 % 0.0 mm 220.0 W/m2 CLR
17:28 19.4 °C 7.2 °C 1018.2 hPa SW 5.6 km/h 5.6 km/h 45 % 0.0 mm 220.0 W/m2 CLR
17:33 19.3 °C 7.4 °C 1018.2 hPa SW 9.3 km/h 9.3 km/h 46 % 0.0 mm 246.0 W/m2 CLR
17:39 19.1 °C 7.2 °C 1018.2 hPa SSW 5.6 km/h 5.6 km/h 46 % 0.0 mm 264.0 W/m2 CLR
17:44 19.2 °C 7.3 °C 1018.2 hPa SSW 5.6 km/h 5.6 km/h 46 % 0.0 mm 292.0 W/m2 CLR
17:49 19.3 °C 7.4 °C 1018.2 hPa South 5.6 km/h 5.6 km/h 46 % 0.0 mm 306.0 W/m2 CLR
17:54 19.4 °C 7.5 °C 1018.2 hPa WSW 1.9 km/h 1.9 km/h 46 % 0.0 mm 251.0 W/m2 CLR
17:59 19.5 °C 7.6 °C 1017.8 hPa SW 7.4 km/h 7.4 km/h 46 % 0.0 mm 220.0 W/m2 CLR
18:04 19.5 °C 7.6 °C 1018.2 hPa SW 8.0 km/h 8.0 km/h 46 % 0.0 mm 230.0 W/m2 CLR
18:09 19.4 °C 7.5 °C 1017.8 hPa SW 3.7 km/h 3.7 km/h 46 % 0.0 mm 529.0 W/m2 CLR
18:14 19.8 °C 7.8 °C 1017.8 hPa SSW 5.6 km/h 5.6 km/h 46 % 0.0 mm 513.0 W/m2 CLR
18:19 20.2 °C 7.5 °C 1017.8 hPa WSW 5.6 km/h 5.6 km/h 44 % 0.0 mm 473.0 W/m2 CLR
18:24 20.4 °C 7.7 °C 1017.8 hPa West 14.8 km/h 14.8 km/h 44 % 0.0 mm 492.0 W/m2 CLR
18:29 20.4 °C 7.7 °C 1017.8 hPa SW 6.4 km/h 6.4 km/h 44 % 0.0 mm 480.0 W/m2 CLR
18:34 20.1 °C 7.4 °C 1017.8 hPa SW 9.3 km/h 9.3 km/h 44 % 0.0 mm 132.0 W/m2 CLR
18:39 19.7 °C 7.4 °C 1017.8 hPa SW 11.1 km/h 11.1 km/h 45 % 0.0 mm 134.0 W/m2 CLR
18:44 19.8 °C 7.5 °C 1017.8 hPa WSW 13.0 km/h 13.0 km/h 45 % 0.0 mm 125.0 W/m2 CLR
18:49 19.6 °C 7.3 °C 1017.8 hPa WSW 9.7 km/h 9.7 km/h 45 % 0.0 mm 118.0 W/m2 CLR
18:54 19.6 °C 7.6 °C 1017.8 hPa SW 5.6 km/h 5.6 km/h 46 % 0.0 mm 127.0 W/m2 CLR
18:59 19.6 °C 7.6 °C 1017.8 hPa SSW 16.7 km/h 16.7 km/h 46 % 0.0 mm 272.0 W/m2 CLR
19:04 19.7 °C 7.4 °C 1017.5 hPa SW 9.7 km/h 9.7 km/h 45 % 0.0 mm 141.0 W/m2 CLR
19:09 19.7 °C 7.4 °C 1017.5 hPa WSW 13.0 km/h 13.0 km/h 45 % 0.0 mm 135.0 W/m2 CLR
19:14 19.6 °C 7.3 °C 1017.5 hPa SW 14.8 km/h 14.8 km/h 45 % 0.0 mm 179.0 W/m2 CLR
19:19 19.6 °C 7.3 °C 1017.5 hPa SW 11.1 km/h 11.1 km/h 45 % 0.0 mm 121.0 W/m2 CLR
19:24 19.6 °C 7.3 °C 1017.5 hPa SW 11.1 km/h 11.1 km/h 45 % 0.0 mm 148.0 W/m2 CLR
19:29 19.6 °C 7.3 °C 1017.5 hPa SW 8.0 km/h 8.0 km/h 45 % 0.0 mm 88.0 W/m2 CLR
19:34 19.7 °C 7.4 °C 1017.5 hPa SW 5.6 km/h 5.6 km/h 45 % 0.0 mm 214.0 W/m2 CLR
19:39 19.9 °C 7.3 °C 1017.5 hPa SW 3.7 km/h 3.7 km/h 44 % 0.0 mm 213.0 W/m2 CLR
19:44 20.2 °C 7.6 °C 1017.5 hPa Calm     44 % 0.0 mm 202.0 W/m2 CLR
19:49 20.3 °C 7.3 °C 1017.5 hPa SW 3.7 km/h 3.7 km/h 43 % 0.0 mm 79.0 W/m2 CLR
19:54 20.1 °C 7.1 °C 1017.5 hPa Calm     43 % 0.0 mm 72.0 W/m2 CLR
19:59 20.1 °C 7.4 °C 1017.5 hPa Calm     44 % 0.0 mm 134.0 W/m2 CLR
20:04 20.2 °C 7.6 °C 1017.5 hPa Calm     44 % 0.0 mm 81.0 W/m2 FEW
20:09 20.1 °C 7.4 °C 1017.5 hPa Calm     44 % 0.0 mm 49.0 W/m2 SCT
20:14 19.9 °C 7.0 °C 1017.5 hPa NW 14.5 km/h 14.5 km/h 43 % 0.0 mm 49.0 W/m2 SCT
20:19 19.8 °C 6.8 °C 1017.5 hPa NNW 5.6 km/h 5.6 km/h 43 % 0.0 mm 46.0 W/m2 SCT
20:24 19.7 °C 6.7 °C 1017.5 hPa Calm     43 % 0.0 mm 33.0 W/m2 BKN
20:29 19.5 °C 6.6 °C 1017.5 hPa NW 9.3 km/h 9.3 km/h 43 % 0.0 mm 26.0 W/m2 BKN
20:34 19.3 °C 6.7 °C 1017.5 hPa NW 5.6 km/h 5.6 km/h 44 % 0.0 mm 19.0 W/m2 BKN
20:39 19.1 °C 6.9 °C 1017.5 hPa NW 1.9 km/h 1.9 km/h 45 % 0.0 mm 16.0 W/m2 BKN
20:44 18.9 °C 6.7 °C 1017.5 hPa Calm     45 % 0.0 mm 12.0 W/m2 BKN
20:49 18.7 °C 6.8 °C 1017.5 hPa Calm     46 % 0.0 mm 9.0 W/m2 BKN
20:54 18.5 °C 6.9 °C 1017.5 hPa Calm     47 % 0.0 mm 5.0 W/m2 OVC
20:59 18.1 °C 6.9 °C 1017.8 hPa Calm     48 % 0.0 mm 0.0 W/m2 OVC
21:04 17.7 °C 6.9 °C 1017.8 hPa Calm     49 % 0.0 mm 0.0 W/m2 CLR
21:09 17.4 °C 6.9 °C 1017.8 hPa Calm     50 % 0.0 mm 0.0 W/m2 CLR
21:14 17.2 °C 6.9 °C 1017.8 hPa Calm     51 % 0.0 mm 0.0 W/m2 CLR
21:19 16.9 °C 7.0 °C 1017.8 hPa Calm     52 % 0.0 mm 0.0 W/m2 CLR
21:24 16.6 °C 7.0 °C 1017.8 hPa Calm     53 % 0.0 mm 0.0 W/m2 CLR
21:29 16.3 °C 6.9 °C 1018.2 hPa Calm     54 % 0.0 mm 0.0 W/m2 CLR
21:34 16.1 °C 7.0 °C 1018.2 hPa Calm     55 % 0.0 mm 0.0 W/m2 CLR
21:39 16.1 °C 6.7 °C 1018.2 hPa Calm     54 % 0.0 mm 0.0 W/m2 CLR
21:44 16.1 °C 7.0 °C 1018.2 hPa Calm     55 % 0.0 mm 0.0 W/m2 CLR
21:49 15.9 °C 6.8 °C 1018.5 hPa Calm     55 % 0.0 mm 0.0 W/m2 CLR
21:54 15.8 °C 7.0 °C 1018.5 hPa Calm     56 % 0.0 mm 0.0 W/m2 CLR
21:59 15.6 °C 7.4 °C 1018.5 hPa Calm     58 % 0.0 mm 0.0 W/m2 CLR
22:04 15.3 °C 7.1 °C 1018.5 hPa Calm     58 % 0.0 mm 0.0 W/m2 CLR
22:09 15.1 °C 7.2 °C 1018.5 hPa Calm     59 % 0.0 mm 0.0 W/m2 CLR
22:14 14.9 °C 7.2 °C 1018.5 hPa Calm     60 % 0.0 mm 0.0 W/m2 CLR
22:19 14.7 °C 7.3 °C 1018.8 hPa Calm     61 % 0.0 mm 0.0 W/m2 CLR
22:24 14.5 °C 7.3 °C 1018.8 hPa Calm     62 % 0.0 mm 0.0 W/m2 CLR
22:29 14.3 °C 7.2 °C 1018.8 hPa Calm     62 % 0.0 mm 0.0 W/m2 CLR
22:30 14.3 °C 7.2 °C 1018.8 hPa Calm     62 % 0.0 mm 0.0 W/m2 CLR
22:35 14.2 °C 7.2 °C 1018.8 hPa Calm     63 % 0.0 mm 0.0 W/m2 CLR
22:40 14.0 °C 7.3 °C 1018.8 hPa Calm     64 % 0.0 mm 0.0 W/m2 CLR
22:45 13.9 °C 7.4 °C 1018.8 hPa Calm     65 % 0.0 mm 0.0 W/m2 CLR
22:50 13.8 °C 7.4 °C 1018.8 hPa Calm     65 % 0.0 mm 0.0 W/m2 CLR
22:55 13.7 °C 7.4 °C 1018.8 hPa Calm     66 % 0.0 mm 0.0 W/m2 CLR
23:00 13.5 °C 7.3 °C 1018.8 hPa Calm     66 % 0.0 mm 0.0 W/m2 CLR
23:05 13.3 °C 7.3 °C 1018.8 hPa Calm     67 % 0.0 mm 0.0 W/m2 CLR
23:10 13.2 °C 7.2 °C 1018.8 hPa Calm     67 % 0.0 mm 0.0 W/m2 CLR
23:15 13.1 °C 7.1 °C 1019.2 hPa Calm     67 % 0.0 mm 0.0 W/m2 CLR
23:20 13.0 °C 7.2 °C 1019.2 hPa Calm     68 % 0.0 mm 0.0 W/m2 CLR
23:25 12.8 °C 7.1 °C 1019.2 hPa Calm     68 % 0.0 mm 0.0 W/m2 CLR
23:30 12.8 °C 7.2 °C 1019.2 hPa Calm     69 % 0.0 mm 0.0 W/m2 CLR
23:35 12.7 °C 7.1 °C 1019.2 hPa Calm     69 % 0.0 mm 0.0 W/m2 CLR
23:40 12.5 °C 6.9 °C 1019.2 hPa Calm     69 % 0.0 mm 0.0 W/m2 CLR
23:45 12.4 °C 7.1 °C 1019.2 hPa Calm     70 % 0.0 mm 0.0 W/m2 CLR
23:50 12.2 °C 6.9 °C 1019.2 hPa Calm     70 % 0.0 mm 0.0 W/m2 CLR
23:55 12.1 °C 7.0 °C 1019.2 hPa Calm     71 % 0.0 mm 0.0 W/m2 CLR
Lo Temps de Massalio
Compliments of Weather Underground - 1.25 mb